Fairmont, MN

1:24 PM CDT on August 21, 2017 (GMT -0500)
Fairmont Municipal

Weather History for KFRM - June, 2013

Change the Weather History Date:

Saturday, June 29, 2013

  Actual Average Record
Temperature  
Mean Temperature 70 °F -  
Max Temperature 77 °F 80 °F 97 °F (1970)
Min Temperature 62 °F 61 °F 48 °F (1959)
Cooling Degree Days 4    
Growing Degree Days 20 (Base 50)    
Moisture  
Dew Point 55 °F    
Average Humidity 63    
Maximum Humidity 88    
Minimum Humidity 41    
Precipitation  
Precipitation 0.07 in - - ()
Sea Level Pressure  
Sea Level Pressure 29.88 in    
Wind  
Wind Speed 13 mph (North)    
Max Wind Speed 21 mph    
Max Gust Speed 29 mph    
Visibility 10 miles    
Events      
Averages and records for this station are not official NWS values.
T = Trace of Precipitation, MM = Missing Value Source: NWS Daily Summary

Daily Weather History Graph

Daily Weather History Graph

Search for Another Location

Airport or City:

Trip Planner

Search our weather history database for the weather conditions in past years. The results will help you decide how hot, cold, wet, or windy it might be!

Date:

Astronomy

Jun. 29, 2013 Rise Set
Actual Time 5:39 AM CDT 9:03 PM CDT
Civil Twilight 5:03 AM CDT 9:38 PM CDT
Nautical Twilight 4:16 AM CDT 10:25 PM CDT
Astronomical Twilight 3:17 AM CDT 11:24 PM CDT
Moon 12:19 AM CDT (6/29) 1:06 PM CDT (6/29)
Length of Visible Light 16h 35m
Length of Day
15h 24m
Waning Gibbous, 55% of the Moon is Illuminated
Jun 29
Waning Gibbous
Jun 29
Last Quarter
Jul 8
New
Jul 15
First Quarter
Jul 22
Full

Hourly Weather History & Observations

Time (CDT) Temp. Dew Point Humidity Pressure Visibility Wind Dir Wind Speed Gust Speed Precip Events Conditions
12:15 AM 69.8 °F 55.4 °F 60% 29.84 in 10.0 mi NW 11.5 mph - N/A   Clear
12:35 AM 68.0 °F 55.4 °F 64% 29.83 in 10.0 mi NW 10.4 mph - N/A   Clear
12:55 AM 68.0 °F 55.4 °F 64% 29.83 in 10.0 mi NW 10.4 mph - N/A   Clear
1:15 AM 68.0 °F 55.4 °F 64% 29.83 in 10.0 mi NW 10.4 mph - N/A   Clear
1:35 AM 66.2 °F 55.4 °F 68% 29.82 in 10.0 mi NW 9.2 mph - N/A   Clear
1:55 AM 66.2 °F 55.4 °F 68% 29.82 in 10.0 mi NW 9.2 mph - N/A   Partly Cloudy
2:15 AM 66.2 °F 55.4 °F 68% 29.82 in 10.0 mi NW 11.5 mph - N/A   Partly Cloudy
2:35 AM 66.2 °F 55.4 °F 68% 29.82 in 10.0 mi NW 10.4 mph - N/A   Clear
2:55 AM 66.2 °F 55.4 °F 68% 29.82 in 10.0 mi NW 11.5 mph 16.1 mph N/A   Clear
3:15 AM 66.2 °F 55.4 °F 68% 29.82 in 10.0 mi NW 11.5 mph - N/A   Clear
3:35 AM 64.4 °F 55.4 °F 73% 29.81 in 10.0 mi NW 11.5 mph - N/A   Clear
3:55 AM 64.4 °F 55.4 °F 73% 29.81 in 10.0 mi NW 13.8 mph - N/A   Clear
4:15 AM 64.4 °F 55.4 °F 73% 29.81 in 10.0 mi NW 11.5 mph - N/A   Clear
4:35 AM 64.4 °F 55.4 °F 73% 29.82 in 10.0 mi NW 12.7 mph - N/A   Clear
4:55 AM 64.4 °F 55.4 °F 73% 29.82 in 10.0 mi NW 12.7 mph - N/A   Clear
5:15 AM 64.4 °F 55.4 °F 73% 29.82 in 10.0 mi NW 13.8 mph - N/A   Clear
5:35 AM 62.6 °F 55.4 °F 77% 29.82 in 10.0 mi NW 12.7 mph 18.4 mph N/A   Clear
5:55 AM 62.6 °F 55.4 °F 77% 29.82 in 10.0 mi NW 11.5 mph - N/A   Clear
6:15 AM 62.6 °F 55.4 °F 77% 29.82 in 10.0 mi NW 15.0 mph - N/A   Clear
6:35 AM 64.4 °F 55.4 °F 73% 29.82 in 10.0 mi NW 16.1 mph - N/A   Scattered Clouds
6:55 AM 64.4 °F 55.4 °F 73% 29.83 in 10.0 mi NW 17.3 mph 25.3 mph N/A   Overcast
7:15 AM 64.4 °F 57.2 °F 77% 29.83 in 10.0 mi NNW 17.3 mph - N/A   Overcast
7:35 AM 64.4 °F 57.2 °F 77% 29.83 in 10.0 mi NW 17.3 mph 25.3 mph N/A   Overcast
7:55 AM 64.4 °F 57.2 °F 77% 29.84 in 10.0 mi NW 16.1 mph 26.5 mph N/A   Overcast
8:15 AM 66.2 °F 57.2 °F 73% 29.84 in 8.0 mi NNW 17.3 mph 26.5 mph N/A   Overcast
8:35 AM 66.2 °F 57.2 °F 73% 29.84 in 10.0 mi NW 15.0 mph 28.8 mph N/A   Overcast
8:55 AM 64.4 °F 57.2 °F 77% 29.85 in 8.0 mi NNW 19.6 mph 27.6 mph N/A   Overcast
9:15 AM 62.6 °F 59.0 °F 88% 29.86 in 10.0 mi North 15.0 mph 21.9 mph 0.05 in   Mostly Cloudy
9:35 AM 62.6 °F 57.2 °F 82% 29.86 in 10.0 mi North 15.0 mph 20.7 mph 0.06 in   Mostly Cloudy
9:55 AM 64.4 °F 59.0 °F 83% 29.87 in 10.0 mi North 18.4 mph 24.2 mph 0.06 in   Overcast
10:15 AM 64.4 °F 60.8 °F 88% 29.87 in 10.0 mi North 15.0 mph - N/A   Overcast
10:35 AM 66.2 °F 59.0 °F 78% 29.87 in 10.0 mi North 15.0 mph 24.2 mph N/A   Overcast
10:55 AM 66.2 °F 57.2 °F 73% 29.88 in 10.0 mi North 17.3 mph 26.5 mph N/A   Mostly Cloudy
11:15 AM 68.0 °F 57.2 °F 68% 29.89 in 10.0 mi North 18.4 mph 23.0 mph N/A   Mostly Cloudy
11:35 AM 68.0 °F 57.2 °F 68% 29.89 in 10.0 mi North 17.3 mph 25.3 mph N/A   Mostly Cloudy
11:55 AM 69.8 °F 57.2 °F 64% 29.90 in 10.0 mi North 16.1 mph 23.0 mph N/A   Overcast
12:15 PM 69.8 °F 57.2 °F 64% 29.90 in 10.0 mi North 19.6 mph 28.8 mph 0.01 in   Mostly Cloudy
12:35 PM 71.6 °F 57.2 °F 60% 29.90 in 10.0 mi North 20.7 mph 25.3 mph 0.01 in   Mostly Cloudy
12:55 PM 71.6 °F 55.4 °F 57% 29.90 in 10.0 mi North 16.1 mph 27.6 mph 0.01 in   Mostly Cloudy
1:15 PM 73.4 °F 55.4 °F 53% 29.90 in 10.0 mi North 16.1 mph 24.2 mph N/A   Mostly Cloudy
1:35 PM 73.4 °F 55.4 °F 53% 29.90 in 10.0 mi North 18.4 mph 23.0 mph N/A   Mostly Cloudy
1:55 PM 73.4 °F 55.4 °F 53% 29.90 in 10.0 mi North 15.0 mph 24.2 mph N/A   Mostly Cloudy
2:15 PM 73.4 °F 53.6 °F 50% 29.90 in 10.0 mi North 16.1 mph 25.3 mph N/A   Scattered Clouds
2:35 PM 75.2 °F 51.8 °F 44% 29.90 in 10.0 mi North 17.3 mph 28.8 mph N/A   Mostly Cloudy
2:55 PM 75.2 °F 53.6 °F 47% 29.90 in 10.0 mi North 13.8 mph 20.7 mph N/A   Mostly Cloudy
3:15 PM 75.2 °F 53.6 °F 47% 29.91 in 10.0 mi North 15.0 mph 20.7 mph N/A   Mostly Cloudy
3:35 PM 71.6 °F 53.6 °F 53% 29.91 in 10.0 mi NNE 12.7 mph 18.4 mph N/A   Overcast
3:55 PM 73.4 °F 53.6 °F 50% 29.92 in 10.0 mi North 11.5 mph 16.1 mph N/A   Overcast
4:15 PM 75.2 °F 53.6 °F 47% 29.91 in 10.0 mi North 11.5 mph 21.9 mph N/A   Mostly Cloudy
4:35 PM 73.4 °F 53.6 °F 50% 29.91 in 10.0 mi NNE 12.7 mph 19.6 mph N/A   Overcast
4:55 PM 73.4 °F 55.4 °F 53% 29.91 in 10.0 mi NNE 12.7 mph - N/A   Mostly Cloudy
5:15 PM 75.2 °F 53.6 °F 47% 29.91 in 10.0 mi North 15.0 mph 20.7 mph N/A   Scattered Clouds
5:35 PM 75.2 °F 51.8 °F 44% 29.91 in 10.0 mi North 16.1 mph - N/A   Partly Cloudy
5:55 PM 75.2 °F 51.8 °F 44% 29.91 in 10.0 mi North 12.7 mph 21.9 mph N/A   Clear
6:15 PM 77.0 °F 51.8 °F 41% 29.91 in 10.0 mi North 15.0 mph 25.3 mph N/A   Clear
6:35 PM 75.2 °F 51.8 °F 44% 29.91 in 10.0 mi NNE 13.8 mph 21.9 mph N/A   Partly Cloudy
6:55 PM 73.4 °F 51.8 °F 47% 29.92 in 10.0 mi NE 13.8 mph 19.6 mph N/A   Mostly Cloudy
7:15 PM 73.4 °F 51.8 °F 47% 29.92 in 10.0 mi NNE 12.7 mph 18.4 mph N/A   Mostly Cloudy
7:35 PM 73.4 °F 53.6 °F 50% 29.93 in 10.0 mi NNE 11.5 mph - N/A   Scattered Clouds
7:55 PM 73.4 °F 53.6 °F 50% 29.94 in 10.0 mi NNE 10.4 mph - N/A   Partly Cloudy
8:15 PM 71.6 °F 51.8 °F 50% 29.94 in 10.0 mi NNE 9.2 mph 16.1 mph N/A   Mostly Cloudy
8:35 PM 71.6 °F 53.6 °F 53% 29.94 in 10.0 mi NNE 9.2 mph - N/A   Mostly Cloudy
8:55 PM 69.8 °F 53.6 °F 56% 29.95 in 10.0 mi North 8.1 mph - N/A   Mostly Cloudy
9:15 PM 69.8 °F 53.6 °F 56% 29.95 in 10.0 mi North 8.1 mph - N/A   Mostly Cloudy
9:35 PM 68.0 °F 53.6 °F 60% 29.95 in 10.0 mi NNE 8.1 mph - N/A   Scattered Clouds
9:55 PM 66.2 °F 53.6 °F 64% 29.96 in 10.0 mi NNE 8.1 mph - N/A   Scattered Clouds
10:15 PM 66.2 °F 53.6 °F 64% 29.97 in 10.0 mi NE 5.8 mph - N/A   Mostly Cloudy
10:35 PM 66.2 °F 53.6 °F 64% 29.97 in 9.0 mi NE 6.9 mph - N/A   Mostly Cloudy
10:55 PM 64.4 °F 51.8 °F 64% 29.97 in 10.0 mi ENE 6.9 mph - N/A   Mostly Cloudy
11:15 PM 64.4 °F 51.8 °F 64% 29.98 in 10.0 mi NE 6.9 mph - N/A   Partly Cloudy
11:35 PM 62.6 °F 51.8 °F 68% 29.98 in 10.0 mi NNE 6.9 mph - N/A   Clear
11:55 PM 62.6 °F 51.8 °F 68% 29.99 in 10.0 mi North 5.8 mph - N/A   Clear